Location: Launois
(49.6535°N, 4.5395°E)
Time: 09:47:43
(UTC+00:00)

CZ-2D R/B - Pass Details

Date: 19 August 2024
Orbit: 791 x 842 km, 98.8° (Epoch: 16 September)

Event Time Altitude Azimuth Distance (km) Brightness Sun altitude
Rises 01:38:01 0° 17° (NNE) 3,348 6.7 -23.0°
Reaches altitude 10° 01:40:23 10° 21° (NNE) 2,420 5.7 -22.8°
Maximum altitude 01:45:42 63° 102° (ESE) 924 2.4 -22.3°
Enters shadow 01:47:41 38° 167° (SSE) 1,246 2.7 -22.2°
